Showing default

COSMOS 2213, 22184

Orbit data source: Space-Track

COSMOS 2213, 22184 is a payload satellite owned by VKS (CIS) in LEO that was launched on Tue, 20 Oct 1992 UTC via a TSIKLON-3 launch vehicle from the Plesetsk Missile And Space Complex (PKMTR). Payload-class satellites include a variety of spacecraft equipped with specific instruments for various scientific and technological missions. These include communications satellites like Starlink; space stations such as the ISS; scientific satellites like the Hubble; Earth observation satellites from companies like Planet Labs, Umbra, and HawkEye 360; GPS; miniature CubeSats for education and research; and military/defense satellites.

Loading next visibility...
Identifier
22184, 1992-068C
Orbit
LEO
Country
Flag of CISCIS
Related business
Manufacturer
NPO PM
Mission
Defense Communications
Bus & Motor
STRELA-3, Unknown motor
Mass
225 kg wet, 225 kg dry
Launch date (UTC)
1992-10-20 (34 years ago)
Launch vehicle
TSIKLON-3
Launch site
Plesetsk Missile And Space Complex (PKMTR)
Object type
Payload
Rocket body
Debris
Shape & HBR
Cyl, 0.8 m
Radar Cross Section
1.257 m², Large (>1 m²)

Expand to show TLE details & history
Last TLE update: 7 hours ago

TLE from 7 hours ago
0 COSMOS 2213
1 22184U 92068C   26126.19589299  .00000040  00000-0  16554-3 0  9999
2 22184  82.6039  13.7532 0002127 212.0905 267.7568 12.62610513545652
Epoch: 2026-05-06T04:42Z
TLE epoch observation values (Epoch: 2026-05-06T04:42:05.154Z)
Latitude
59.44447°
Longitude
-113.46657°
Altitude
1,422.293 km
Speed
7.155 km/s
True Right ascension
12h 04m 27s
True Declination
59° 18' 24"
Sunlit
Object was in daylight at epoch
Visualization orbit readout
Latitude
Unknown
Longitude
Unknown
Altitude
Unknown
Speed
Unknown
Apparent Right ascension
Unknown
Apparent Declination
Unknown
Sunlit
N/A
Visualization observer readout
Local Sidereal Time
19:50:03
Azimuth
Unknown
Elevation
Unknown
Doppler factor
Unknown
Orbital elements
Apogee altitude
1,411.164 km
Perigee altitude
1,407.851 km
Semi-major axis
7,787.644 km
Eccentricity
0.00021
Inclination
82.6039°
RAAN
13.7532°
Arg. of periapsis
212.0905°
True anomaly
267.73245°
Mean anomaly
267.7568°
Eccentric anomaly
267.74462°
Mean motion
3.15816 °/min
Orbital period
113.99 mins
BSTAR
0.00016554
Loading maneuver chart data...
Computing Atmospheric mass density...
Loading historical data...
Loading historical data...
Loading historical data...
Loading historical data...
Loading historical data...
Loading historical data...
Loading historical data...

Documentation

Showing up to 5 results
|